Decorah
Tuesday 11:15 PM
Temperature57° (73°/46°)
Dew Point55°
Relative Humidity94
%
Visibility10
mi
Pressure1019.0
mb
Wind Direction
Wind SpeedCalm
Precipitation Today0.00"

Last 30 Observations

Time PresWx Temp DP Feels RH% Vsby Pressure Ceiling Direction Speed 1h Precip
11:15 PM 57° 55° 94
%
10
mi
1019.0
mb
Calm 0.00"
10:55 PM 59° 55° 88
%
10
mi
1019.0
mb
7,000
ft
Calm 0.00"
10:35 PM 59° 55° 88
%
10
mi
1018.6
mb
7,000
ft
SSW
200°
3
mph
0.00"
10:15 PM 59° 57° 94
%
10
mi
1018.6
mb
Calm 0.00"
9:55 PM 59° 57° 94
%
10
mi
1018.6
mb
Calm 0.00"
9:35 PM 63° 55° 77
%
10
mi
1018.6
mb
Calm 0.00"
9:15 PM 63° 57° 83
%
10
mi
1018.6
mb
Calm 0.00"
8:55 PM 64° 57° 77
%
10
mi
1018.3
mb
Calm 0.00"
8:35 PM 63° 57° 83
%
10
mi
1018.3
mb
Calm 0.00"
8:15 PM 63° 57° 83
%
10
mi
1018.3
mb
Calm 0.00"
7:55 PM 66° 57° 73
%
10
mi
1018.3
mb
Calm 0.00"
7:35 PM 70° 52° 53
%
10
mi
1018.3
mb
Calm 0.00"
7:15 PM 70° 54° 56
%
10
mi
1018.3
mb
Calm 0.00"
6:55 PM 72° 50° 71°46
%
10
mi
1018.3
mb
NW
320°
6
mph
0.00"
6:35 PM 72° 52° 71°50
%
10
mi
1018.3
mb
Variable 5
mph
0.00"
6:15 PM 72° 52° 71°50
%
10
mi
1018.6
mb
NW
310°
5
mph
0.00"
5:55 PM 70° 52° 53
%
10
mi
1018.6
mb
NNW
330°
7
mph
0.00"
5:35 PM 72° 52° 71°50
%
10
mi
1019.0
mb
NW
320°
6
mph
0.00"
5:15 PM 70° 52° 53
%
10
mi
1019.0
mb
8,500
ft
NW
320°
7
mph
0.00"
4:55 PM 72° 52° 71°50
%
10
mi
1019.3
mb
8,000
ft
NNW
340°
7
mph
0.00"
4:35 PM 72° 50° 71°46
%
10
mi
1019.3
mb
NNW
340°
6
mph
0.00"
4:15 PM 72° 48° 71°43
%
10
mi
1019.3
mb
N
360°
6
mph
0.00"
3:55 PM 73° 48° 72°41
%
10
mi
1019.7
mb
NNW
330°
9
mph
0.00"
3:35 PM 72° 50° 71°46
%
10
mi
1019.7
mb
NNW
340°
8
mph
0.00"
3:15 PM 72° 50° 71°46
%
10
mi
1019.7
mb
N
350°
6
mph
0.00"
2:55 PM 72° 48° 71°43
%
10
mi
1019.7
mb
6,500
ft
N
360°
7
mph
0.00"
2:35 PM 72° 50° 71°46
%
10
mi
1020.0
mb
6,000
ft
Variable 7
mph
(G15)
0.00"
2:15 PM 72° 50° 71°46
%
10
mi
1020.0
mb
NW
320°
7
mph
0.00"
1:55 PM 72° 50° 71°46
%
10
mi
1020.0
mb
NNW
340°
10
mph
0.00"
1:35 PM 72° 50° 71°46
%
10
mi
1020.3
mb
NNE
20°
5
mph
0.00"